Meadow Lake, CO

2:28 AM MST on November 18, 2017 (GMT -0700)
Meadow Lake

Weather History for KFLY - November, 2012

Change the Weather History Date:

Friday, November 30, 2012

  Actual Average (KCOS) Record (KCOS)
Temperature  
Mean Temperature 46 °F -  
Max Temperature 61 °F 44 °F 67 °F (1951)
Min Temperature 31 °F 19 °F -3 °F (2006)
Degree Days  
Heating Degree Days 19    
Moisture  
Dew Point 15 °F    
Average Humidity 31    
Maximum Humidity 51    
Minimum Humidity 15    
Precipitation  
Precipitation 0.00 in - - ()
Sea Level Pressure  
Sea Level Pressure 30.02 in    
Wind  
Wind Speed 9 mph (West)    
Max Wind Speed 16 mph    
Max Gust Speed 26 mph    
Visibility 10 miles    
Events      
Averages and records for this station are not official NWS values.
T = Trace of Precipitation, MM = Missing Value Source: NWS Daily Summary

Daily Weather History Graph

Daily Weather History Graph

Search for Another Location

Airport or City:

Trip Planner

Search our weather history database for the weather conditions in past years. The results will help you decide how hot, cold, wet, or windy it might be!

Date:

Astronomy

Nov. 30, 2012 Rise Set
Actual Time 6:57 AM MST 4:36 PM MST
Civil Twilight 6:28 AM MST 5:06 PM MST
Nautical Twilight 5:55 AM MST 5:39 PM MST
Astronomical Twilight 5:22 AM MST 6:11 PM MST
Moon 6:33 PM MST (11/30) 8:31 AM MST (11/30)
Length of Visible Light 10h 37m
Length of Day
9h 39m
Waning Gibbous, 96% of the Moon is Illuminated
Nov 30
Waning Gibbous
Dec 6
Last Quarter
Dec 13
New
Dec 19
First Quarter
Dec 28
Full

Hourly Weather History & Observations

Time (MST) Temp. Windchill Dew Point Humidity Pressure Visibility Wind Dir Wind Speed Gust Speed Precip Events Conditions
12:11 AM 37.2 °F 31.2 °F 10.4 °F 33% 30.11 in 10.0 mi North 8.1 mph - N/A   Clear
12:31 AM 38.1 °F 32.3 °F 11.8 °F 34% 30.11 in 10.0 mi North 8.1 mph - N/A   Clear
12:51 AM 38.7 °F 32.9 °F 12.2 °F 34% 30.10 in 10.0 mi North 8.1 mph - N/A   Clear
1:11 AM 39.6 °F 33.5 °F 12.7 °F 33% 30.10 in 10.0 mi North 9.2 mph - N/A   Clear
1:31 AM 39.0 °F 33.4 °F 13.1 °F 35% 30.11 in 10.0 mi North 8.1 mph - N/A   Clear
1:51 AM 37.9 °F 31.5 °F 13.1 °F 36% 30.11 in 10.0 mi North 9.2 mph - N/A   Clear
2:11 AM 37.8 °F 31.8 °F 13.6 °F 37% 30.11 in 10.0 mi North 8.1 mph - N/A   Clear
2:31 AM 36.7 °F 30.5 °F 13.8 °F 39% 30.11 in 10.0 mi North 8.1 mph - N/A   Clear
2:51 AM 38.7 °F 31.8 °F 14.0 °F 37% 30.10 in 10.0 mi North 10.4 mph - N/A   Clear
3:11 AM 36.3 °F 30.8 °F 14.0 °F 40% 30.11 in 10.0 mi NNW 6.9 mph - N/A   Clear
3:31 AM 32.5 °F 26.2 °F 14.9 °F 48% 30.10 in 10.0 mi North 6.9 mph - N/A   Clear
3:51 AM 31.1 °F 23.1 °F 14.7 °F 51% 30.09 in 10.0 mi NW 9.2 mph - N/A   Clear
4:11 AM 32.7 °F 25.0 °F 15.4 °F 49% 30.10 in 10.0 mi NW 9.2 mph - N/A   Clear
4:31 AM 34.2 °F 26.8 °F 15.3 °F 46% 30.10 in 10.0 mi NW 9.2 mph - N/A   Clear
5:11 AM 39.6 °F 32.1 °F 17.8 °F 41% 30.10 in 10.0 mi NW 12.7 mph - N/A   Clear
5:31 AM 38.7 °F 31.8 °F 17.4 °F 42% 30.10 in 10.0 mi NW 10.4 mph - N/A   Clear
5:51 AM 38.8 °F 31.6 °F 17.2 °F 42% 30.10 in 10.0 mi NW 11.5 mph - N/A   Clear
6:11 AM 37.6 °F 32.3 °F 16.7 °F 43% 30.10 in 10.0 mi NW 6.9 mph - N/A   Clear
6:31 AM 36.1 °F 29.3 °F 16.5 °F 45% 30.10 in 10.0 mi NW 9.2 mph - N/A   Clear
6:51 AM 37.4 °F 30.8 °F 16.3 °F 42% 30.10 in 10.0 mi NW 9.2 mph - N/A   Clear
7:11 AM 36.5 °F 31.0 °F 16.7 °F 45% 30.10 in 10.0 mi WNW 6.9 mph - N/A   Clear
7:31 AM 38.3 °F 32.5 °F 16.7 °F 42% 30.10 in 10.0 mi West 8.1 mph - N/A   Clear
7:51 AM 41.7 °F 37.3 °F 16.3 °F 36% 30.11 in 10.0 mi WSW 6.9 mph - N/A   Clear
8:11 AM 42.4 °F 38.8 °F 16.5 °F 35% 30.10 in 10.0 mi WSW 5.8 mph - N/A   Clear
8:31 AM 45.1 °F 42.0 °F 16.7 °F 32% 30.10 in 10.0 mi SW 5.8 mph - N/A   Clear
8:51 AM 46.4 °F 41.9 °F 16.3 °F 30% 30.10 in 10.0 mi WSW 9.2 mph - N/A   Clear
9:11 AM 48.4 °F - 15.3 °F 27% 30.10 in 10.0 mi WSW 9.2 mph - N/A   Clear
9:31 AM 48.9 °F - 15.1 °F 26% 30.10 in 10.0 mi WSW 8.1 mph - N/A   Clear
9:50 AM 49.3 °F - 14.5 °F 25% 30.09 in 10.0 mi SW 8.1 mph - N/A   Clear
10:11 AM 50.9 °F - 14.7 °F 24% 30.09 in 10.0 mi SW 3.5 mph - N/A   Clear
10:31 AM 53.1 °F - 14.5 °F 22% 30.08 in 10.0 mi SSW 6.9 mph - N/A   Clear
10:51 AM 53.4 °F - 13.1 °F 20% 30.06 in 10.0 mi South 9.2 mph - N/A   Clear
11:11 AM 54.3 °F - 13.5 °F 20% 30.04 in 10.0 mi SSW 8.1 mph - N/A   Clear
11:31 AM 55.6 °F - 14.2 °F 20% 30.04 in 10.0 mi SSW 10.4 mph 24.2 mph N/A   Clear
11:51 AM - - - N/A% - - North - - N/A   Unknown
12:11 PM - - - N/A% - - North - - N/A   Unknown
12:31 PM - - - N/A% - - North - - N/A   Unknown
12:51 PM 57.2 °F - 14.5 °F 19% 29.99 in - South 9.2 mph - N/A   Clear
1:09 PM 59.5 °F - 13.1 °F 16% 29.98 in 10.0 mi South 16.1 mph 20.7 mph N/A   Clear
1:35 PM 60.6 °F - 12.9 °F 15% 29.97 in 10.0 mi South 12.7 mph - N/A   Clear
1:55 PM 61.2 °F - 13.1 °F 15% 29.96 in 10.0 mi South 12.7 mph 19.6 mph N/A   Clear
2:15 PM 61.2 °F - 13.1 °F 15% 29.96 in 10.0 mi SSW 15.0 mph - N/A   Clear
2:35 PM 61.5 °F - 13.3 °F 15% 29.96 in 10.0 mi SSW 15.0 mph 19.6 mph N/A   Clear
2:55 PM 60.4 °F - 13.5 °F 16% 29.96 in 10.0 mi SSW 15.0 mph 26.5 mph N/A   Clear
3:15 PM 60.1 °F - 14.0 °F 16% 29.95 in 10.0 mi SSW 16.1 mph - N/A   Clear
3:35 PM 57.7 °F - 14.9 °F 19% 29.95 in 10.0 mi South 16.1 mph 24.2 mph N/A   Clear
3:55 PM 55.2 °F - 14.9 °F 20% 29.96 in 10.0 mi South 9.2 mph 16.1 mph N/A   Clear
4:15 PM 52.3 °F - 14.7 °F 22% 29.96 in 10.0 mi South 11.5 mph - N/A   Clear
4:35 PM 51.6 °F - 14.9 °F 23% 29.96 in 10.0 mi South 12.7 mph 19.6 mph N/A   Clear
4:55 PM 47.7 °F - 13.8 °F 26% 29.96 in 10.0 mi South 12.7 mph 16.1 mph N/A   Clear
5:15 PM 49.1 °F - 13.6 °F 24% 29.96 in 10.0 mi SW 5.8 mph - N/A   Clear
5:35 PM 47.5 °F - 12.9 °F 25% 29.96 in 10.0 mi SSW 10.4 mph - N/A   Clear
6:15 PM 45.9 °F 41.7 °F 13.1 °F 27% 29.94 in 10.0 mi South 8.1 mph - N/A   Clear
6:35 PM 44.1 °F 42.5 °F 14.7 °F 31% 29.94 in 10.0 mi West 3.5 mph - N/A   Clear
6:55 PM 43.7 °F 38.6 °F 14.4 °F 31% 29.94 in 10.0 mi East 9.2 mph - N/A   Clear
7:15 PM 42.6 °F 40.9 °F 14.9 °F 33% 29.94 in 10.0 mi ESE 3.5 mph - N/A   Clear
7:35 PM 41.2 °F 38.2 °F 14.9 °F 34% 29.94 in 10.0 mi NE 4.6 mph - N/A   Clear
7:55 PM 43.0 °F 41.3 °F 15.8 °F 33% 29.93 in 10.0 mi North 3.5 mph - N/A   Clear
8:15 PM 44.1 °F 41.5 °F 16.5 °F 33% 29.93 in 10.0 mi East 4.6 mph - N/A   Clear
8:35 PM 43.9 °F 42.3 °F 16.5 °F 33% 29.92 in 10.0 mi NE 3.5 mph - N/A   Clear
8:55 PM 43.7 °F 37.7 °F 16.5 °F 34% 29.92 in 10.0 mi NNE 11.5 mph - N/A   Clear
9:15 PM 43.7 °F 37.3 °F 16.5 °F 34% 29.93 in 10.0 mi NNE 12.7 mph - N/A   Clear
9:35 PM 42.6 °F 37.2 °F 16.5 °F 35% 29.93 in 10.0 mi NNE 9.2 mph - N/A   Clear
10:15 PM 43.2 °F 37.0 °F 16.3 °F 34% 29.93 in 10.0 mi ESE 11.5 mph 16.1 mph N/A   Clear
10:35 PM 47.8 °F - 17.6 °F 30% 29.93 in 10.0 mi NNW 4.6 mph - N/A   Clear
10:55 PM 44.4 °F 42.9 °F 17.2 °F 34% 29.93 in 10.0 mi West 3.5 mph - N/A   Clear
11:15 PM 48.2 °F - 18.3 °F 31% 29.93 in 10.0 mi Calm Calm - N/A   Clear
11:35 PM 51.6 °F - 19.4 °F 28% 29.93 in 10.0 mi SSW 4.6 mph - N/A   Clear
11:55 PM 47.7 °F - 18.7 °F 32% 29.93 in 10.0 mi Calm Calm - N/A   Clear